Location: Eastview
(35.0756°N, 88.5453°W)
Time: 04:36:58
(UTC+00:00)

Exosat Rocket - Pass Details

Date: 22 November 2019
Orbit: 762 x 2513 km, 72.3° (Epoch: 09 December)

Event Time Altitude Azimuth Distance (km) Brightness Sun altitude
Rises 11:58:35 0° 340° (NNW) 3,495 6.5 -7.8°
Reaches altitude 10° 12:00:45 10° 340° (NNW) 2,674 5.9 -7.4°
Maximum altitude 12:06:54 90° 71° (ENE) 1,179 4.5 -6.2°
Drops below altitude 10° 12:15:42 10° 163° (SSE) 3,757 7.6 -4.6°
Sets 12:19:15 0° 163° (SSE) 5,006 8.3 -3.9°
